Regional Weather Roundup
Issued by NWS Lake Charles, LA

Home | Current Version | Previous Version | Text Only | Print | Product List | Glossary On
Versions: 1 2 3 4 5 6 7 8 9 10 11 12 13 14 15 16 17 18 19 20 21 22 23 24 25 26 27 28 29 30 31 32 33 34 35 36 37 38 39 40 41 42 43 44 45 46 47 48 49 50
000
ASUS44 KLCH 290010
RWRLCH
RWRLCH
REGIONAL WEATHER ROUNDUP
NATIONAL WEATHER SERVICE LAKE CHARLES LA
600 PM CST SUN DEC 28 2014

Note: "fair" indicates few or no clouds below 12,000 feet with no
significant weather and/or obstructions to visibility.


ACROSS SOUTHEAST TEXAS

CITY           SKY/WX    TMP DP  RH WIND       PRES   REMARKS
BEAUMONT       LGT RAIN  47  45  93 NW12      30.14R
BEAUMONT CITY  DRIZZLE   44  43  98 N10       30.14R
ORANGE         RAIN      46  46  98 NW7       30.14R
JASPER         LGT RAIN  44  43  97 NE5       30.15F
$$

ACROSS CENTRAL LOUISIANA

CITY           SKY/WX    TMP DP  RH WIND       PRES   REMARKS
LEESVILLE      LGT RAIN  46  45  97 N6        30.12F VSB 3/4
FULLERTON      LGT RAIN  49  45  86 VRB5      30.10R
ALEXANDRIA INT RAIN      46  45  96 NW6       30.13R
ESLER FIELD    LGT RAIN  45  44  97 N5        30.12S
DERIDDER       LGT RAIN  46  45  95 CALM      30.13F
OAKDALE        LGT RAIN  49  47  93 N7        30.10F
OPELOUSAS      CLOUDY    48  47  97 N10       30.09S
$$

ACROSS SOUTHWEST AND SOUTH CENTRAL LOUISIANA

CITY           SKY/WX    TMP DP  RH WIND       PRES   REMARKS
SULPHUR        RAIN      48  48  98 NW9       30.12R
LAKE CHARLES   RAIN      50  48  93 N10       30.11R FOG
CHENNAULT INT  LGT RAIN  48  48 100 NW9       30.12R
CAMERON PHI    CLOUDY    50  48  93 NW10G20   30.14R
DEQUINCY       LGT RAIN  46  46 100 N3        30.12F
JENNINGS       CLOUDY    49  49  98 N8        30.10R
LAFAYETTE      LGT RAIN  52  51  97 N9        30.10R
NEW IBERIA     RAIN      53  51  93 N7        30.09S FOG
ABBEVILLE      LGT RAIN  51  51  98 N6        30.08R
PATTERSON      CLOUDY    55  52  88 NE8       30.06F
SALT POINT       N/A     66  55  67 NE5       30.04F
$$

SELECTED SITES ACROSS THE REGION

CITY           SKY/WX    TMP DP  RH WIND       PRES   REMARKS
HOUSTON BUSH   CLOUDY    42  39  89 N9        30.15S
HOUSTON HOBBY  LGT RAIN  43  41  93 N9        30.14F FOG
GALVESTON      LGT RAIN  45  45 100 N12       30.14F
COLLEGE STAT   CLOUDY    40  35  83 NW7       30.16F
CONROE         CLOUDY    39  37  92 VRB6      30.15F
HUNTSVILLE     CLOUDY    39  38  96 N5        30.16S
LUFKIN         CLOUDY    42  37  82 N5        30.16F
SHREVEPORT     LGT RAIN  42  41  96 NW7       30.16S
MONROE         LGT RAIN  44  43  96 N7        30.17S
NATCHEZ MS     CLOUDY    46  43  87 NW6       30.12R
BATON ROUGE    LGT RAIN  53  49  86 N3        30.09S FOG
N.O. INTL ARPT CLOUDY    59  55  87 N13       30.05F
SLIDELL        CLOUDY    60  57  89 N9        30.04S FOG
$$

MARINE REPORTS

STATION/POSITION TIME  TEMP    WIND        PRES    VSBY  WAVE
                       AIR SEA DIR/SP/G                  HT/PER
                 (UTC) (F)     (DEG/KT/KT) (MB)    (MI)  (FT/S)
BUOY 30 S HIGH I 0000   48 61  350/ 14/ 17 1019.8R         2/ 4
SEA RIM ST PARK  0000   46     350/ 10/ 12 1021.0R
PORT ARTHUR      0000      59  340/  7/ 10 1020.5R
SABINE PASS N    0000   48 58  350/  9/ 12 1020.1R
TEXAS POINT      NOT AVBL
CALCASIEU PASS   0000   48 58  350/ 12/ 14   N/A
LK CHARLES BEACH 0000   49 58              1019.9R
MARSH ISLAND     NOT AVBL
FRESH WATER LOCK 0000   55 60   20/  5/  8 1018.2R
AMERADA PASS     0000   56 53   10/  4/  7 1017.1F
$$



USA.gov is the U.S. government's official web portal to all federal, state and local government web resources and services.